This is the latest recevied weather packets stored in our database for station/object N8HON. If no packets are shown the sender has not sent any weather packets the latest 10 day(s).
| Time | Temp. | Humidity | Pressure | Rain* | Wind** | Luminosity | Snow |
|---|---|---|---|---|---|---|---|
| 1778022151 | 21.67° C | 44% | 1008.9 hPa | 0 mm | - | 38 W/m² | - |
| 1778021848 | 22.22° C | 44% | 1008.9 hPa | 0 mm | - | 39 W/m² | - |
| 1778021545 | 22.22° C | 42% | 1009 hPa | 0 mm | - | 39 W/m² | - |
| 1778021240 | 22.78° C | 42% | 1008.9 hPa | 0 mm | - | 58 W/m² | - |
| 1778020938 | 22.78° C | 41% | 1009 hPa | 0 mm | - | 78 W/m² | - |
| 1778020636 | 22.78° C | 40% | 1008.8 hPa | 0 mm | - | 98 W/m² | - |
| 1778020331 | 22.78° C | 35% | 1008.9 hPa | 0 mm | - | 93 W/m² | - |
| 1778020028 | 23.33° C | 34% | 1009 hPa | 0 mm | - | 88 W/m² | - |
| 1778019723 | 23.33° C | 35% | 1008.8 hPa | 0 mm | - | 77 W/m² | - |
| 1778019421 | 23.89° C | 34% | 1009.1 hPa | 0 mm | - | 92 W/m² | - |
| 1778019117 | 23.89° C | 34% | 1008.9 hPa | 0 mm | - | 133 W/m² | - |
| 1778018815 | 23.33° C | 35% | 1009 hPa | 0 mm | - | 126 W/m² | - |
| 1778018512 | 23.33° C | 35% | 1009.1 hPa | 0 mm | - | 108 W/m² | - |
| 1778018210 | 23.89° C | 35% | 1009.1 hPa | 0 mm | - | 81 W/m² | - |
| 1778017908 | 23.89° C | 34% | 1009.1 hPa | 0 mm | - | 94 W/m² | - |
| 1778017605 | 24.44° C | 33% | 1009.1 hPa | 0 mm | - | 124 W/m² | - |
| 1778017302 | 25° C | 33% | 1009 hPa | 0 mm | - | 310 W/m² | - |
| 1778017000 | 25° C | 32% | 1009.1 hPa | 0 mm | - | 365 W/m² | - |
| 1778016696 | 25.56° C | 31% | 1008.9 hPa | 0 mm | - | 363 W/m² | - |
| 1778016392 | 25° C | 34% | 1008.8 hPa | 0 mm | - | 422 W/m² | - |
| 1778016090 | 25° C | 30% | 1008.6 hPa | 0 mm | - | 456 W/m² | - |
| 1778015787 | 24.44° C | 30% | 1008.8 hPa | 0 mm | - | 381 W/m² | - |
| 1778015484 | 25° C | 29% | 1009 hPa | 0 mm | - | 287 W/m² | - |
| 1778015181 | 25° C | 30% | 1009.1 hPa | 0 mm | - | 308 W/m² | - |
| 1778014878 | 25° C | 28% | 1008.9 hPa | 0 mm | - | 409 W/m² | - |
* Rain latest hour (hover to see other rain measurements)
** Current wind speed in m/s (hover to see current wind gust speed)